Home > Weather > Aspen > Past weeks

Flag for U.S.A. Weather for the Past 2 Weeks in Aspen, Colorado, U.S.A.

Now
22 °F

Sunny.


Feels Like: 14 °F
Forecast: 17 / 45 °F
Wind: 6 mph from Southeast

Location: Aspen-Pitkin County Airport

Current Time: Feb 10, 2016 at 9:13:13 AM

Latest Report: Feb 10, 2016 at 8:53 AM


Visibility: 10 mi

Pressure: 30.50 "Hg (22.42 "Hg at 2411m altitude)

Humidity: 62%

Dew point: 11 °F

Location of AspenLocation

Historic Weather in Aspen — Graph

°F

Aspen Temperature Yesterday

Maximum temperature yesterday: 41 °F (at 2:53 PM)
Minimum temperature yesterday: 11 °F (at 6:53 AM)
Average temperature yesterday: 24 °F

High & Low Weather Summary for the Past Weeks

 TemperatureHumidityPressure
High50 °F (Jan 30, 1:53 PM)96% (Jan 30, 9:04 PM)30.71 "Hg (Jan 30, 9:04 PM)
Low-9 °F (Feb 4, 2:53 AM)30% (Jan 30, 1:53 PM)29.29 "Hg (Feb 1, 1:53 PM)
Average18 °F72%30.22 "Hg
* Reported Jan 26 7:53 AM — Feb 10 7:53 AM, Aspen, Weather by CustomWeather, © 2016

Note: Actual official high and low records may vary slightly from our data, if they occured in-between our weather recording intervals... More about our weather records

Advertising

Aspen Weather History for the Previous 24 Hours

 ConditionsComfort  
Time TempWeatherWind HumidityBarometerVisibility
7:53 AM
Wed, Feb 10
12 °FSunny.5 mph70%30.56 "Hg10 mi
6:53 AM10 °FClear.5 mph73%30.55 "Hg10 mi
5:53 AM11 °FClear.7 mph70%30.53 "Hg10 mi
4:53 AM15 °FClear.8 mph67%30.49 "Hg10 mi
3:53 AM14 °FClear.9 mph73%30.47 "Hg10 mi
2:53 AM13 °FClear.3 mph70%30.47 "Hg10 mi
1:53 AM13 °FClear.6 mph74%30.46 "Hg10 mi
12:53 AM17 °FClear.6 mph68%30.47 "Hg10 mi
11:53 PM
Tue, Feb 9
19 °FClear.6 mph71%30.49 "Hg10 mi
10:53 PM18 °FClear.No wind74%30.50 "Hg10 mi
9:53 PM23 °FClear.7 mph68%30.50 "Hg10 mi
8:53 PM24 °FClear.8 mph65%30.54 "Hg10 mi
7:53 PM24 °FClear.8 mph71%30.59 "Hg10 mi
6:53 PM26 °FClear.7 mph66%30.56 "Hg10 mi
5:53 PM29 °FClear.7 mph64%30.52 "Hg10 mi
4:53 PM33 °FSunny.7 mph56%30.47 "Hg10 mi
3:53 PM39 °FSunny.3 mph46%30.42 "Hg10 mi
2:53 PM41 °FSunny.6 mph39%30.41 "Hg10 mi
1:53 PM38 °FSunny.6 mph46%30.45 "Hg10 mi
12:53 PM35 °FSunny.7 mph50%30.46 "Hg10 mi
11:53 AM32 °FSunny.9 mph52%30.49 "Hg10 mi
10:53 AM33 °FSunny.3 mph48%30.52 "Hg10 mi
9:53 AM28 °FSunny.No wind56%30.55 "Hg10 mi
Weather by CustomWeather, © 2016

See weather overviewHow to use our weather pages